When you browse on this site, cookies collect data to enhance your experience and personalize the content and advertising you see.
Visit our Privacy Policy to learn more. By continuing to use the site, you agree to this use of cookies and data.
  • In Portugal
  • List of Countries
  • For 7 days
  • Water Temperature
  • Weather Map
  • Weather Widgets
  • user-avatar
    Login

    Hourly Weather Yulara

    Today, 22 September, Sunday

    Time Temperature Precipitation Wind Pressure Humidity
    00:00 +8°C° 0 mm 5 mps 723 mmHg 31%
    01:00 +7°C° 0 mm 5 mps 723 mmHg 33%
    02:00 +7°C° 0 mm 5 mps 723 mmHg 36%
    03:00 +6°C° 0 mm 5 mps 723 mmHg 38%
    04:00 +6°C° 0 mm 5 mps 723 mmHg 40%
    05:00 +5°C° 0 mm 5 mps 723 mmHg 42%
    06:00 +5°C° 0 mm 5 mps 724 mmHg 44%
    07:00 +8°C° 0 mm 6 mps 724 mmHg 38%
    08:00 +11°C° 0 mm 7 mps 725 mmHg 32%
    09:00 +16°C° 0 mm 7 mps 725 mmHg 23%
    10:00 +18°C° 0 mm 7 mps 725 mmHg 20%
    11:00 +20°C° 0 mm 6 mps 725 mmHg 18%
    12:00 +22°C° 0 mm 6 mps 724 mmHg 16%
    13:00 +23°C° 0 mm 5 mps 724 mmHg 14%
    14:00 +25°C° 0 mm 5 mps 723 mmHg 13%
    15:00 +26°C° 0 mm 4 mps 723 mmHg 13%
    16:00 +23°C° 0 mm 4 mps 723 mmHg 14%
    17:00 +22°C° 0 mm 4 mps 723 mmHg 16%
    18:00 +20°C° 0 mm 3 mps 723 mmHg 18%
    19:00 +19°C° 0 mm 4 mps 724 mmHg 18%
    20:00 +18°C° 0 mm 4 mps 725 mmHg 19%
    21:00 +17°C° 0 mm 4 mps 725 mmHg 20%
    22:00 +15°C° 0 mm 5 mps 725 mmHg 22%
    23:00 +14°C° 0 mm 5 mps 725 mmHg 24%

    Tomorrow, 23 September, Monday

    Time Temperature Precipitation Wind Pressure Humidity
    00:00 +12°C° 0 mm 5 mps 725 mmHg 27%
    01:00 +12°C° 0 mm 5 mps 725 mmHg 27%
    02:00 +12°C° 0 mm 5 mps 725 mmHg 28%
    03:00 +12°C° 0 mm 5 mps 724 mmHg 29%
    04:00 +12°C° 0 mm 5 mps 725 mmHg 29%
    05:00 +12°C° 0 mm 5 mps 725 mmHg 29%
    06:00 +12°C° 0 mm 5 mps 726 mmHg 29%
    07:00 +13°C° 0 mm 6 mps 726 mmHg 27%
    08:00 +15°C° 0 mm 7 mps 726 mmHg 24%
    09:00 +17°C° 0 mm 9 mps 726 mmHg 22%
    10:00 +20°C° 0 mm 8 mps 726 mmHg 21%
    11:00 +21°C° 0 mm 7 mps 726 mmHg 19%
    12:00 +22°C° 0 mm 7 mps 726 mmHg 18%
    13:00 +23°C° 0 mm 7 mps 726 mmHg 18%
    14:00 +24°C° 0 mm 7 mps 725 mmHg 17%
    15:00 +24°C° 0 mm 7 mps 725 mmHg 17%
    16:00 +23°C° 0 mm 7 mps 725 mmHg 21%
    17:00 +21°C° 0 mm 6 mps 725 mmHg 26%
    18:00 +20°C° 0 mm 6 mps 725 mmHg 30%
    19:00 +19°C° 0 mm 5 mps 725 mmHg 34%
    20:00 +17°C° 0 mm 4 mps 726 mmHg 37%
    21:00 +16°C° 0 mm 2 mps 726 mmHg 41%
    22:00 +16°C° 0 mm 3 mps 726 mmHg 44%
    23:00 +14°C° 0 mm 3 mps 725 mmHg 48%

    Day after tomorrow, 24 September, Tuesday

    Time Temperature Precipitation Wind Pressure Humidity
    00:00 +13°C° 0 mm 4 mps 725 mmHg 51%
    01:00 +14°C° 0 mm 4 mps 725 mmHg 49%
    02:00 +14°C° 0 mm 3 mps 724 mmHg 46%
    03:00 +14°C° 0 mm 3 mps 724 mmHg 44%
    04:00 +14°C° 0 mm 3 mps 725 mmHg 41%
    05:00 +14°C° 0 mm 3 mps 725 mmHg 39%
    06:00 +14°C° 0 mm 3 mps 725 mmHg 36%
    07:00 +15°C° 0 mm 4 mps 726 mmHg 34%
    08:00 +16°C° 0 mm 5 mps 726 mmHg 32%
    09:00 +16°C° 0 mm 7 mps 726 mmHg 31%
    10:00 +16°C° 0 mm 7 mps 726 mmHg 33%
    11:00 +16°C° 0 mm 7 mps 726 mmHg 36%
    12:00 +16°C° 0 mm 8 mps 726 mmHg 39%
    13:00 +16°C° 0 mm 7 mps 725 mmHg 44%
    14:00 +16°C° 0 mm 6 mps 725 mmHg 48%
    15:00 +15°C° 0 mm 5 mps 724 mmHg 53%
    16:00 +15°C° 0 mm 5 mps 724 mmHg 56%
    17:00 +15°C° 0 mm 5 mps 724 mmHg 59%
    18:00 +14°C° 0 mm 4 mps 724 mmHg 62%
    19:00 +13°C° 0 mm 4 mps 724 mmHg 68%
    20:00 +12°C° 0 mm 4 mps 725 mmHg 74%
    21:00 +10°C° 0 mm 3 mps 725 mmHg 81%
    22:00 +10°C° 0 mm 3 mps 725 mmHg 83%
    23:00 +10°C° 0 mm 3 mps 724 mmHg 85%

    25 September, Wednesday

    Time Temperature Precipitation Wind Pressure Humidity
    00:00 +9°C° 0 mm 3 mps 724 mmHg 87%
    01:00 +9°C° 0 mm 3 mps 724 mmHg 87%
    02:00 +9°C° 0 mm 3 mps 723 mmHg 88%
    03:00 +9°C° 0 mm 2 mps 723 mmHg 88%
    04:00 +9°C° 0 mm 3 mps 723 mmHg 88%
    05:00 +9°C° 0 mm 3 mps 724 mmHg 89%
    06:00 +9°C° 0 mm 3 mps 724 mmHg 89%
    07:00 +12°C° 0 mm 4 mps 724 mmHg 76%
    08:00 +15°C° 0 mm 4 mps 724 mmHg 63%
    09:00 +19°C° 0 mm 5 mps 725 mmHg 50%
    10:00 +21°C° 0 mm 5 mps 724 mmHg 44%
    11:00 +23°C° 0 mm 5 mps 724 mmHg 38%
    12:00 +26°C° 0 mm 4 mps 723 mmHg 32%
    13:00 +27°C° 0 mm 4 mps 723 mmHg 30%
    14:00 +27°C° 0 mm 3 mps 722 mmHg 27%
    15:00 +28°C° 0 mm 2 mps 721 mmHg 24%
    16:00 +27°C° 0 mm 2 mps 721 mmHg 26%
    17:00 +26°C° 0 mm 2 mps 721 mmHg 28%
    18:00 +25°C° 0 mm 1 mps 721 mmHg 29%
    19:00 +24°C° 0 mm 2 mps 721 mmHg 32%
    20:00 +23°C° 0 mm 2 mps 722 mmHg 35%
    21:00 +21°C° 0 mm 2 mps 722 mmHg 38%
    22:00 +20°C° 0 mm 3 mps 722 mmHg 39%
    23:00 +19°C° 0 mm 3 mps 722 mmHg 40%

    26 September, Thursday

    Time Temperature Precipitation Wind Pressure Humidity
    00:00 +19°C° 0 mm 4 mps 722 mmHg 41%
    01:00 +18°C° 0 mm 4 mps 721 mmHg 43%
    02:00 +15°C° 0 mm 4 mps 721 mmHg 46%
    03:00 +14°C° 0 mm 4 mps 721 mmHg 49%
    04:00 +13°C° 0 mm 4 mps 721 mmHg 50%
    05:00 +13°C° 0 mm 4 mps 721 mmHg 50%
    06:00 +12°C° 0 mm 4 mps 722 mmHg 51%
    07:00 +16°C° 0 mm 5 mps 722 mmHg 43%
    08:00 +20°C° 0 mm 5 mps 723 mmHg 35%
    09:00 +24°C° 0 mm 6 mps 723 mmHg 27%
    10:00 +26°C° 0 mm 5 mps 723 mmHg 25%
    11:00 +28°C° 0 mm 4 mps 722 mmHg 23%
    12:00 +30°C° 0 mm 3 mps 722 mmHg 22%
    13:00 +31°C° 0 mm 3 mps 721 mmHg 20%
    14:00 +31°C° 0 mm 2 mps 720 mmHg 19%
    15:00 +32°C° 0 mm 1 mps 720 mmHg 17%
    16:00 +30°C° 0 mm 1 mps 719 mmHg 20%
    17:00 +29°C° 0 mm 1 mps 719 mmHg 22%
    18:00 +27°C° 0 mm 1 mps 719 mmHg 25%
    19:00 +26°C° 0 mm 1 mps 720 mmHg 26%
    20:00 +26°C° 0 mm 1 mps 720 mmHg 27%
    21:00 +25°C° 0 mm 2 mps 721 mmHg 28%
    22:00 +24°C° 0 mm 2 mps 720 mmHg 28%
    23:00 +24°C° 0 mm 3 mps 720 mmHg 28%

    27 September, Friday

    Time Temperature Precipitation Wind Pressure Humidity
    00:00 +23°C° 0 mm 4 mps 720 mmHg 29%
    01:00 +22°C° 0 mm 4 mps 720 mmHg 30%
    02:00 +21°C° 0 mm 4 mps 720 mmHg 31%
    03:00 +20°C° 0 mm 5 mps 719 mmHg 33%
    04:00 +20°C° 0 mm 4 mps 720 mmHg 34%
    05:00 +19°C° 0 mm 4 mps 720 mmHg 36%
    06:00 +18°C° 0 mm 4 mps 720 mmHg 38%
    07:00 +21°C° 0 mm 4 mps 720 mmHg 34%
    08:00 +23°C° 0 mm 4 mps 721 mmHg 30%
    09:00 +26°C° 0 mm 4 mps 721 mmHg 26%
    10:00 +28°C° 0 mm 5 mps 721 mmHg 23%
    11:00 +30°C° 0 mm 6 mps 721 mmHg 21%
    12:00 +33°C° 0 mm 6 mps 720 mmHg 19%
    13:00 +34°C° 0 mm 6 mps 720 mmHg 18%
    14:00 +35°C° 0 mm 6 mps 719 mmHg 17%
    15:00 +36°C° 0 mm 6 mps 719 mmHg 16%
    16:00 +34°C° 0 mm 6 mps 719 mmHg 18%
    17:00 +33°C° 0 mm 5 mps 719 mmHg 20%
    18:00 +30°C° 0 mm 4 mps 719 mmHg 22%
    19:00 +29°C° 0 mm 4 mps 720 mmHg 24%
    20:00 +28°C° 0 mm 4 mps 720 mmHg 26%
    21:00 +27°C° 0 mm 4 mps 720 mmHg 28%
    22:00 +26°C° 0 mm 4 mps 720 mmHg 30%
    23:00 +25°C° 0 mm 3 mps 719 mmHg 33%
    Show more